COSMOS 2529 (757)

Last updated on Sept. 26, 2020, 5:40 a.m. UTC

1 43687U 18086A   20269.62786218  .00000056  00000-0  00000+0 0  9990
2 43687  64.5276 263.7343 0012514 266.5825  90.0088  2.13102126 14733
UTC
Height (km)
Latitude
Longitude
Inclination
Orbital Period
UTC large
Height (km)
Speed (km/s)
/
Latitude / Longitude
Inclination (degrees)
Orbital Period (minutes)
Azimuth
Elevation
Range (km)
Doppler Factor
iOS Compass Heading
iOS Angle

Next 30 passes for location: Hong Kong

Rise time Rise Azimuth (degrees) Set time Set Azimuth (degrees) Duration Max altitude (degrees)

No matching passes for this satellites